jeancoutu.com alexa rank chart, jeancoutu.com alexa rank daily changes

jeancoutu.com alexa rank chart, jeancoutu.com alexa rank daily changes

jeancoutu.com
Actual rank:
82 747

RANK HISTORY

Date Rank Diff
2017/07/27 82 747 -234
2017/07/26 82 981 -1 881
2017/07/25 84 862 -1 783
2017/07/24 86 645 -93
2017/07/23 86 738 -146
2017/07/22 86 884 -733
2017/07/21 87 617 -1 557
2017/07/20 89 174 -1 631
2017/07/19 90 805 +53
2017/07/18 90 752 -1 560
2017/07/17 92 312 +1 296
2017/07/16 91 016 -560
2017/07/15 91 576 -1 522
2017/07/14 93 098 -106
2017/07/13 93 204 -137
2017/07/12 93 341 -445
2017/07/11 93 786 +760
2017/07/10 93 026 +164
2017/07/09 92 862 -548
2017/07/08 93 410 +174
2017/07/07 93 236 -714
2017/07/06 93 950 +1 976
2017/07/05 91 974 -1 057
2017/07/04 93 031 -1 683
2017/07/03 94 714 -1 042
2017/07/02 95 756 -571
2017/07/01 96 327 -900
2017/06/30 97 227 +148
2017/06/29 97 079 +1 186
2017/06/28 95 893 -1 199
2017/06/27 97 092 +440
2017/06/26 96 652 +911
2017/06/25 95 741 +507
2017/06/24 95 234 +1 140
2017/06/23 94 094 +1 092
2017/06/22 93 002 +822
2017/06/21 92 180 -126
2017/06/20 92 306 +1 368
2017/06/19 90 938 +384
2017/06/18 90 554 -602
2017/06/17 91 156 -245
2017/06/16 91 401 -312
2017/06/15 91 713 -790
2017/06/14 92 503 -1 456
2017/06/13 93 959 +74
2017/06/12 93 885 +1 528
2017/06/11 92 357 -375
2017/06/10 92 732 -854
2017/06/09 93 586 +1 191
2017/06/08 92 395 -1 217
2017/06/07 93 612 +574
2017/06/06 93 038 -734
2017/06/05 93 772 -104
2017/06/04 93 876 -742
2017/06/03 94 618 +1 071
2017/06/02 93 547 +173
2017/06/01 93 374 +592
2017/05/31 92 782 +111
2017/05/30 92 671 -360
2017/05/29 93 031 -1 173
2017/05/28 94 204

WIDGET FOR YOUR SITE

DOMAINS WITH THE NEAREST RANK

Domain Rank
speed-share.org 82 742
ticketweb.co.uk 82 743
sli.do 82 744
nlyman.com 82 745
engineersinstitute.com 82 746
jeancoutu.com 82 747
cultureamp.com 82 748
eat.ch 82 749
fenghuaju.cc 82 750
tenbai-tosyokan.jp 82 751
channelz.ir 82 752

DOMAINS WITH THE NEAREST RANK BY TLD .com

Domain Rank
in-photoart.com 82 739
knpuniversity.com 82 740
rightalerts.com 82 741
nlyman.com 82 745
engineersinstitute.com 82 746
jeancoutu.com 82 747
cultureamp.com 82 748
surveycake.com 82 754
ebizel.com 82 755
portaleds.com 82 756
zh-hr.com 82 758